Location: Boissi�res
(45.2500°N, 2.3667°E)
Time: 08:36:01
(UTC+00:00)

SJ-6B - Pass Details

Date: 03 March 2021
Orbit: 509 x 581 km, 97.6° (Epoch: 19 April)

Event Time Altitude Azimuth Distance (km) Brightness Sun altitude
Exits shadow 19:21:49 39° 130° (SE) 875 3.4 -18.6°
Maximum altitude 19:23:03 57° 74° (ENE) 684 2.9 -18.8°
Drops below altitude 10° 19:27:03 10° 356° (N) 1,877 5.7 -19.5°
Sets 19:29:12 0° 352° (N) 2,769 6.7 -19.8°
